Regional Weather Roundup
Issued by NWS Cleveland, OH

Home | Current Version | Previous Version | Graphics & Text | Print | Product List | Glossary On
Versions: 1 2 3 4 5 6 7 8 9 10 11 12 13 14 15 16 17 18 19 20 21 22 23 24 25 26 27 28 29 30 31 32 33 34 35 36 37 38 39 40 41 42 43 44 45 46 47 48 49 50
000
ASUS41 KCLE 121412
RWRCLE
OHIO REGIONAL WEATHER ROUNDUP
NATIONAL WEATHER SERVICE WILMINGTON, OH
900 AM EST TUE DEC 12 2017

NOTE: "FAIR" INDICATES FEW OR NO CLOUDS BELOW 12,000 FEET WITH NO
SIGNIFICANT WEATHER AND/OR OBSTRUCTIONS TO VISIBILITY.

OHZ001>008-015>018-024>027-034-035-043-044-121500-
   NORTHWEST OHIO

CITY           SKY/WX    TMP DP  RH WIND       PRES   REMARKS
DEFIANCE       FAIR      21   9  59 NW13      29.92R WCI   9
FINDLAY        FAIR      23  10  57 NW15      29.87R WCI  10
TOLEDO EXPRESS MOCLDY    22  11  62 NW10      29.87R WCI  11
TOLEDO EXEC    FAIR      22   9  57 NW21G30   29.88R WCI   6
LIMA           CLOUDY    23  11  60 NW20G25   29.88R WCI   8
$$

OHZ009>014-019>023-028>033-038-089-121500-
   NORTHEAST OHIO

CITY           SKY/WX    TMP DP  RH WIND       PRES   REMARKS
CLE-HOPKINS    LGT SNOW  27  20  75 NW23G32   29.78R BLWGSNOWWCI  12
CLE-LAKEFRONT  LGT SNOW  27  21  78 NW26G37   29.74R WCI  12
CUY CO. ARPT   LGT SNOW  25  19  80 NW17G23   29.74R WCI  11
LORAIN-ELYRIA  LGT SNOW  24  11  57 NW21G32   29.78R WCI   9
ASHTABULA      LGT SNOW  24  19  81 NW16G26   29.69R VSB 1   WCI  11
AKRON-CANTON   LGT SNOW  27  21  78 NW12      29.71R WCI  17
WOOSTER        CLOUDY    25  19  78 NW16G29   29.75R WCI  12
MANSFIELD      PTSUNNY   23  16  74 NW16G23   29.77R WCI  10
YOUNGSTOWN     LGT SNOW  28  24  85 NW12      29.66R VSB 3/4 WCI  18
$$

OHZ042-051>053-060>062-070>072-077>081-121500-
  SOUTHWEST OHIO

CITY           SKY/WX    TMP DP  RH WIND       PRES   REMARKS
CINC-COVINGTON LGT SNOW  30  26  85 NW20      29.91R FOG     WCI  17
CINC-LUNKEN    CLOUDY    32  24  72 NW12G23   29.93R WCI  23
HAMILTON       LGT SNOW  29  23  78 NW17G24   29.94R WCI  17
DAYTON         CLOUDY    26  20  77 N18       29.89R WCI  13
WRIGHT-PAT AFB CLOUDY    28  20  72 NW15G25   29.88R WCI  16
DAYTON GENERAL CLOUDY    28  19  69 NW14G22   29.88R WCI  17
WILMINGTON     MIX PCPN  27  22  81 NW20G31   29.86R WCI  13
$$

OHZ036-037-039>041-045>050-054>059-063>069-073>076-082>088-121500-
  CENTRAL AND SOUTHEAST OHIO

CITY           SKY/WX    TMP DP  RH WIND       PRES   REMARKS
COLUMBUS       FLURRIES  29  25  85 NW14      29.81R WCI  18
OSU AIRPORT    FLURRIES  28  20  71 NW20G35   29.82R WCI  15
BOLTON FIELD   CLOUDY    28  21  74 NW16      29.83R WCI  17
RICKENBACK AFB CLOUDY    28  23  81 NW17G23   29.82R WCI  16
NEWARK         CLOUDY    29  23  78 NW17G25   29.79R WCI  17
MARION         NOT AVBL
LANCASTER      LGT SNOW  28  23  81 NW18G30   29.82R WCI  15
ZANESVILLE     CLOUDY    32  23  69 NW14G23   29.75R WCI  22
NEW PHILLY     LGT SNOW  29  23  78 NW15G28   29.74R WCI  18
$$




USA.gov is the U.S. government's official web portal to all federal, state and local government web resources and services.